[Iaude] MPEC V66: 2016 VF2 [a=3.43,e=0.51,i=8.8,H=20.5]

mpec at si.edu mpec at si.edu
Tue Nov 8 19:03:45 EST 2016


M.P.E.C. 2016-V66                                Issued 2016 Nov.  9, 00:00 UT
 
     The Minor Planet Electronic Circulars contain information on unusual
         minor planets and routine data on comets.  They are published
    on behalf of Division F of the International Astronomical Union by the
          Minor Planet Center, Smithsonian Astrophysical Observatory,
                          Cambridge, MA 02138, U.S.A.

             Prepared using the Tamkin Foundation Computer Network

                              MPC at CFA.HARVARD.EDU
            URL http://www.minorplanetcenter.net/    ISSN 1523-6714


                                   2016 VF2
 
Observations:
     K16V02F* C2016 11 05.41449 03 45 21.420+03 33 51.47         21.7 wLEV066F51
     K16V02F  C2016 11 05.42754 03 45 21.030+03 33 55.61         21.8 wLEV066F51
     K16V02F  C2016 11 05.44064 03 45 20.613+03 33 59.60         21.9 wLEV066F51
     K16V02F  C2016 11 05.45377 03 45 20.216+03 34 03.71         21.7 wLEV066F51
     K16V02F KC2016 11 06.20852 03 45 01.00 +03 37 59.0          22.1 RoEV066291
     K16V02F KC2016 11 06.21844 03 45 00.64 +03 38 02.1          21.8 RoEV066291
     K16V02F KC2016 11 06.22836 03 45 00.38 +03 38 05.7          21.6 RoEV066291
     K16V02F KC2016 11 07.33845 03 44 29.75 +03 44 11.3          22.4 RoEV066291
     K16V02F KC2016 11 07.35873 03 44 29.06 +03 44 18.2          22.1 RoEV066291
     K16V02F KC2016 11 07.37973 03 44 28.41 +03 44 26.1                oEV066291
     K16V02F KC2016 11 08.19275 03 44 06.16 +03 49 07.1          20.8 RoEV066291
     K16V02F KC2016 11 08.20144 03 44 05.87 +03 49 10.2          21.2 RoEV066291
     K16V02F KC2016 11 08.21156 03 44 05.58 +03 49 13.5          20.7 RoEV066291
 
Observer details:
291 LPL/Spacewatch II.  Observers A. F. Tubbiolo, R. S. McMillan.  1.8-m f/2.7
    reflector + CCD.
F51 Pan-STARRS 1, Haleakala.  Observers B. Gibson, T. Goggia, S. Kahale,
    A. Schultz, M. Willman.  Measurers K. Chambers, S. Chastel, L. Denneau,
    H. Flewelling, M. Huber, E. Lilly, E. Magnier, R. Wainscoat, C. Waters,
    R. Weryk.  1.8-m Ritchey-Chretien + CCD.
 
Orbital elements:
2016 VF2
Epoch 2016 July 31.0 TT = JDT 2457600.5                 MPC
M 346.72418              (2000.0)            P               Q
n   0.15532539     Peri.  303.74404     +0.74532791     -0.64935074
a   3.4274759      Node    97.23478     +0.65092333     +0.65974995
e   0.5110906      Incl.    8.76072     +0.14417051     +0.37825074
P   6.35           H   20.5           G   0.15           U   7
Residuals in seconds of arc
161105 F51  0.0   0.1-    161106 291  0.8-  0.1-    161108 291  0.1-  0.2+
161105 F51  0.1+  0.0     161106 291  0.2-  0.2+    161108 291  0.3-  0.2+
161105 F51  0.2-  0.1-    161107 291  0.1+  0.6-    161108 291  0.2+  0.1-
161105 F51  0.2-  0.0     161107 291  0.4-  0.6-
161106 291  0.2+  0.0     161107 291  0.0   0.2+

Ephemeris:
2016 VF2                 a,e,i = 3.43, 0.51, 9                   q = 1.6757
Date    TT    R. A. (2000) Decl.     Delta      r     Elong.  Phase     V
2016 10 10    03 45 52.9 +02 33 05   0.7946  1.6814   139.0    22.9    22.2
...
2016 10 25    03 48 30.9 +02 51 17   0.7343  1.6757   151.2    16.6    21.8
...
2016 11 02    03 46 40.7 +03 17 52   0.7166  1.6777   157.8    12.9    21.7
...
2016 11 08    03 44 11.2 +03 48 05   0.7107  1.6814   162.1    10.4    21.6
2016 11 09    03 43 42.2 +03 54 02   0.7104  1.6822   162.8    10.1    21.5
2016 11 10    03 43 12.3 +04 00 16   0.7103  1.6831   163.3     9.7    21.5
...
2016 11 16    03 40 00.2 +04 43 07   0.7136  1.6893   165.6     8.4    21.5
...
2016 11 24    03 35 37.1 +05 54 16   0.7290  1.7005   164.3     9.0    21.6
...
2016 12 09    03 29 49.5 +08 41 43   0.7924  1.7301   153.4    14.8    22.0

A. U. Tomatic                (C) Copyright 2016 MPC           M.P.E.C. 2016-V66




More information about the Iaude mailing list